Regional Weather Roundup
Issued by NWS

Home | Current Version | Previous Version | Graphics & Text | Print | Product List | Glossary Off
Versions: 1 2 3 4 5 6 7 8 9 10 11 12 13 14 15 16 17 18 19 20 21 22 23 24 25 26 27 28 29 30 31 32 33 34 35 36 37 38 39 40 41 42 43 44 45 46 47 48 49 50

000
ASUS43 KTOP 181308
RWRKS

WEATHER ROUNDUP FOR KANSAS
NATIONAL WEATHER SERVICE GOODLAND KS
700 AM CST MON DEC 18 2017

NOTE:  "FAIR" INDICATES FEW OR NO CLOUDS BELOW 12,000 FEET WITH NO
SIGNIFICANT WEATHER AND/OR OBSTRUCTIONS TO VISIBILITY.

KSZ001>006-013>018-027>032-041>047-181400-
NORTHWEST KANSAS

CITY           SKY/WX    TMP DP  RH WIND       PRES   REMARKS
GOODLAND       CLEAR     26  21  81 SW9       29.98S
HAYS           CLOUDY    23  21  92 W9        30.04F
HILL CITY      CLEAR     25  22  88 W9        30.02R
RUSSELL        CLEAR     22  20  92 W10       30.03S WCI  11
$$

KSZ061>065-074>080-084>089-181400-
SOUTHWEST KANSAS

CITY           SKY/WX    TMP DP  RH WIND       PRES   REMARKS
DODGE CITY     CLOUDY    22  18  85 SW8       30.06R
ELKHART        CLOUDY    31  26  81 W7        30.03R
GARDEN CITY    CLOUDY    21  18  88 CALM      30.04R FOG
GREAT BEND     CLEAR     19  17  92 W5        30.07R
LIBERAL        CLOUDY    16  13  88 W7        30.06R
PRATT          CLOUDY    21  17  83 SW5       30.09R
$$

KSZ066>073-081>083-090>101-181400-
SOUTHEAST KANSAS

CITY           SKY/WX    TMP DP  RH WIND       PRES   REMARKS
CHANUTE        CLOUDY    43  41  93 SW8       30.12R
COFFEYVILLE    CLOUDY    44  41  89 SW9       30.13R
HUTCHINSON     CLOUDY    23  22  96 NW5       30.09R
MEDICINE LODGE   N/A     22  20  92 N3        30.11R
NEWTON         CLOUDY    26  25  96 W6        30.09R
PARSONS        PTCLDY    42  41  96 SW8       30.13R
WICHITA INTL   CLOUDY    26  24  92 W3        30.10R
WICHITA JABRA  CLOUDY    29  28  96 SW6       30.10R
WICHITA MCCONL CLOUDY    27  26  94 CALM      30.10R
WINFIELD       FOG       30  30 100 S6        30.14R VSB 1/4
$$

KSZ007>012-019>026-033>040-048>060-102>105-181400-
NORTHEAST KANSAS

CITY           SKY/WX    TMP DP  RH WIND       PRES   REMARKS
CONCORDIA      CLOUDY    31  27  85 SW10      30.01R WCI  22
EMPORIA        CLEAR     30  27  88 SW6       30.08R
LAWRENCE       CLEAR     35  35 100 SW6       30.07R FOG
MANHATTAN      CLEAR     28  25  88 SW7       30.06R
MARYSVILLE     CLOUDY    27  27 100 S6        30.01R
OLATHE IND     PTCLDY    38  38 100 SW9       30.07R
OLATHE EXE     CLOUDY    40  39  97 SW9       30.06R
SALINA         CLOUDY    25  23  92 S5        30.07R
TOPEKA BILLARD PTCLDY    34  33  96 SW5       30.06R FOG
TOPEKA FORBES  PTCLDY    32  32 100 SW7       30.06R FOG
$$




USA.gov is the U.S. government's official web portal to all federal, state and local government web resources and services.